Ольчан

Россия / Республика Саха (Якутия)     64°42′07″N   142°35′27″E
темп.,
°C
ветер,
м/с
пор.,
м/с
влажн.,
%
обл.,
%
осадки,
мм/ч
давл.,
гПа
погр.,
м
27 февраля, сб
сб2723:00−33вюв008667 0.0 103219
02:00−34зсз008877 0.0 103119
05:00−34всв008575 0.0 103119
08:00−33зюз008382 0.0 103119
11:00−31юз118581 0.0 103019
14:00−28юз118281 0.0 1029161
17:00−29юз019269 0.0 102819
20:00−34с0010046 0.0 103019
28 февраля, вс
вс2823:00−35в0010025 0.0 102919
02:00−35всв111000 0.0 102819
05:00−35всв111000 0.0 102719
08:00−36всв111000 0.0 102719
11:00−31всв00920 0.0 102519
14:00−28вюв01860 0.0 1023180
17:00−29юз01944 0.0 102219
20:00−34всв001004 0.0 102319
1 марта, пн
пн123:00−35ссв1110016 0.0 102319
02:00−36св0010054 0.0 102319
05:00−36с0010056 0.0 102319
08:00−35сз0110086 0.0 102219
11:00−31юз119594 0.0 102233
14:00−29зюз119098 0.0 1020159
17:00−30зюз119486 0.0 102019
20:00−34ссз001000 0.0 102219
2 марта, вт
вт223:00−35с119822 0.0 102219
02:00−35ссв119853 0.0 102319
05:00−35св119733 0.0 102219
08:00−35св119643 0.0 102319
11:00−30св118961 0.0 102225
14:00−27всв128299 0.0 1021221
17:00−27всв119099 0.0 102121
20:00−30св2292100 0.0 102219
3 марта, ср
ср323:00−30св2290100 0.0 102319
02:00−30св2290100 0.0 102219
05:00−30св2289100 0.0 102219
08:00−30св2294100 0.0 102121
11:00−28св2296100 0.1 1019125
14:00−26св2290100 0.1 1016310
17:00−26св2391100 0.1 1014322
20:00−29св2394100 0.1 101339